Regional Weather Roundup
Issued by NWS Cleveland, OH

Home | Current Version | Previous Version | Text Only | Print | Product List | Glossary Off
Versions: 1 2 3 4 5 6 7 8 9 10 11 12 13 14 15 16 17 18 19 20 21 22 23 24 25 26 27 28 29 30 31 32 33 34 35 36 37 38 39 40 41 42 43 44 45 46 47 48 49 50

905
ASUS41 KCLE 110502
RWRCLE
OHIO REGIONAL WEATHER ROUNDUP
NATIONAL WEATHER SERVICE CLEVELAND, OH
1200 AM EST THU FEB 11 2016

NOTE: "FAIR" INDICATES FEW OR NO CLOUDS BELOW 12,000 FEET WITH NO
SIGNIFICANT WEATHER AND/OR OBSTRUCTIONS TO VISIBILITY.

OHZ001>008-015>018-024>027-034-035-043-044-110600-
   NORTHWEST OHIO

CITY           SKY/WX    TMP DP  RH WIND       PRES   REMARKS
DEFIANCE       CLOUDY    16   9  74 W6        30.09R WCI   7
FINDLAY        MOCLDY    15   8  73 W16       30.05R WCI  -1
TOLEDO EXPRESS CLEAR     13   2  61 W9        30.05R WCI   1
TOLEDO EXEC    PTCLDY    15   3  59 NW15      30.06R WCI   0
LIMA           CLOUDY    14   6  70 W15G23    30.06S WCI  -1
$$

OHZ009>014-019>023-028>033-038-089-110600-
   NORTHEAST OHIO

CITY           SKY/WX    TMP DP  RH WIND       PRES   REMARKS
CLE-HOPKINS    LGT SNOW  16   8  71 NW18G29   29.99R BLWGSNOWWCI   0
CLE-LAKEFRONT  FLURRIES  20   9  62 NW24G33   29.96R WCI   3
CUY CO. ARPT   NOT AVBL
LORAIN-ELYRIA  LGT SNOW  16  11  80 N15G23    29.99R VSB 1   WCI   1
ASHTABULA      CLOUDY    16   6  65 NW14G25   29.91R WCI   2
AKRON-CANTON   LGT SNOW  14   9  80 W15       29.94R WCI  -1
WOOSTER        FLURRIES  14   9  80 W18       29.97S WCI  -3
MANSFIELD      LGT SNOW  14  10  84 W10G20    29.97S FOG     WCI   1
YOUNGSTOWN     LGT SNOW  16  12  84 W14G20    29.89S WCI   2
$$

OHZ042-051>053-060>062-070>072-077>081-110600-
  SOUTHWEST OHIO

CITY           SKY/WX    TMP DP  RH WIND       PRES   REMARKS
CINC-COVINGTON CLOUDY    12   4  70 SW5       30.14R WCI   4
CINC-LUNKEN    CLOUDY    17   6  62 W5        30.19R WCI  10
HAMILTON       CLOUDY    14   5  67 W5        30.16S WCI   6
DAYTON         PTCLDY    11   3  70 W12       30.10R WCI  -3
WRIGHT-PAT AFB PTCLDY    12   2  64 W9        30.10S WCI   0
DAYTON GENERAL CLOUDY    14   5  67 NW8       30.10S WCI   3
WILMINGTON     CLOUDY    12   5  73 W10       30.10R WCI  -1
$$

OHZ036-037-039>041-045>050-054>059-063>069-073>076-082>088-110600-
  CENTRAL AND SOUTHEAST OHIO

CITY           SKY/WX    TMP DP  RH WIND       PRES   REMARKS
COLUMBUS       MOCLDY    13   3  64 W15G23    30.07S WCI  -3
OSU AIRPORT    CLOUDY    13   5  70 W14G22    30.06S WCI  -2
BOLTON FIELD   NOT AVBL
RICKENBACK AFB NOT AVBL
NEWARK         CLOUDY    13   3  64 MISG      30.06S
MARION         LGT SNOW  15   7  70 W15G23    30.04S WCI   0
LANCASTER      CLEAR     10   1  67 W8        30.08S WCI  -2
ZANESVILLE     CLOUDY    15   5  64 W13       30.05S WCI   1
NEW PHILLY     CLOUDY    14   8  77 W8        30.01S HAZE    WCI   3
$$




USA.gov is the U.S. government's official web portal to all federal, state and local government web resources and services.